• In Russia
  • List of Countries
  • For 7 days
  • Water Temperature
  • Weather Map
  • Weather Widgets
  • user-avatar
    Login

    Hourly Weather Marsa Alam

    Today, 6 April, Monday

    Time Temperature Precipitation Wind Pressure Humidity
    00:00 +22°C° 0 mm 1 mps 713 mmHg 40%
    01:00 +22°C° 0 mm 1 mps 713 mmHg 42%
    02:00 +22°C° 0 mm 1 mps 712 mmHg 44%
    03:00 +22°C° 0 mm 1 mps 712 mmHg 45%
    04:00 +20°C° 0 mm 2 mps 713 mmHg 46%
    05:00 +20°C° 0 mm 2 mps 713 mmHg 47%
    06:00 +22°C° 0 mm 3 mps 713 mmHg 42%
    07:00 +25°C° 0 mm 4 mps 714 mmHg 37%
    08:00 +27°C° 0 mm 4 mps 715 mmHg 32%
    09:00 +29°C° 0 mm 5 mps 715 mmHg 30%
    10:00 +32°C° 0 mm 5 mps 715 mmHg 28%
    11:00 +34°C° 0 mm 6 mps 716 mmHg 26%
    12:00 +34°C° 0 mm 5 mps 715 mmHg 26%
    13:00 +34°C° 0 mm 5 mps 715 mmHg 26%
    14:00 +35°C° 0 mm 5 mps 714 mmHg 25%
    15:00 +33°C° 0 mm 5 mps 714 mmHg 29%
    16:00 +30°C° 0 mm 5 mps 713 mmHg 32%
    17:00 +29°C° 0 mm 5 mps 713 mmHg 36%
    18:00 +27°C° 0 mm 4 mps 713 mmHg 42%
    19:00 +24°C° 0 mm 3 mps 713 mmHg 48%
    20:00 +21°C° 0 mm 2 mps 713 mmHg 54%
    21:00 +21°C° 0 mm 2 mps 714 mmHg 51%
    22:00 +21°C° 0 mm 2 mps 714 mmHg 48%
    23:00 +21°C° 0 mm 2 mps 714 mmHg 45%

    Tomorrow, 7 April, Tuesday

    Time Temperature Precipitation Wind Pressure Humidity
    00:00 +20°C° 0 mm 2 mps 713 mmHg 44%
    01:00 +20°C° 0 mm 2 mps 713 mmHg 43%
    02:00 +20°C° 0 mm 2 mps 713 mmHg 42%
    03:00 +20°C° 0 mm 2 mps 713 mmHg 41%
    04:00 +19°C° 0 mm 3 mps 713 mmHg 39%
    05:00 +19°C° 0 mm 3 mps 713 mmHg 38%
    06:00 +21°C° 0 mm 4 mps 713 mmHg 35%
    07:00 +23°C° 0 mm 4 mps 714 mmHg 33%
    08:00 +26°C° 0 mm 5 mps 714 mmHg 30%
    09:00 +28°C° 0 mm 5 mps 715 mmHg 28%
    10:00 +30°C° 0 mm 5 mps 715 mmHg 25%
    11:00 +33°C° 0 mm 5 mps 715 mmHg 23%
    12:00 +33°C° 0 mm 6 mps 714 mmHg 22%
    13:00 +34°C° 0 mm 6 mps 714 mmHg 22%
    14:00 +34°C° 0 mm 6 mps 713 mmHg 21%
    15:00 +32°C° 0 mm 6 mps 713 mmHg 23%
    16:00 +30°C° 0 mm 5 mps 712 mmHg 25%
    17:00 +28°C° 0 mm 5 mps 712 mmHg 26%
    18:00 +26°C° 0 mm 4 mps 712 mmHg 32%
    19:00 +24°C° 0 mm 3 mps 713 mmHg 37%
    20:00 +21°C° 0 mm 3 mps 713 mmHg 43%
    21:00 +21°C° 0 mm 3 mps 713 mmHg 41%
    22:00 +20°C° 0 mm 3 mps 713 mmHg 38%
    23:00 +20°C° 0 mm 3 mps 713 mmHg 36%

    Day after tomorrow, 8 April, Wednesday

    Time Temperature Precipitation Wind Pressure Humidity
    00:00 +20°C° 0 mm 3 mps 713 mmHg 36%
    01:00 +19°C° 0 mm 3 mps 713 mmHg 36%
    02:00 +19°C° 0 mm 3 mps 713 mmHg 36%
    03:00 +19°C° 0 mm 3 mps 713 mmHg 36%
    04:00 +18°C° 0 mm 3 mps 713 mmHg 36%
    05:00 +18°C° 0 mm 3 mps 713 mmHg 37%
    06:00 +20°C° 0 mm 3 mps 713 mmHg 33%
    07:00 +22°C° 0 mm 4 mps 714 mmHg 29%
    08:00 +23°C° 0 mm 4 mps 714 mmHg 26%
    09:00 +27°C° 0 mm 4 mps 714 mmHg 23%
    10:00 +29°C° 0 mm 4 mps 714 mmHg 20%
    11:00 +32°C° 0 mm 4 mps 714 mmHg 18%
    12:00 +32°C° 0 mm 4 mps 714 mmHg 19%
    13:00 +32°C° 0 mm 5 mps 714 mmHg 20%
    14:00 +32°C° 0 mm 5 mps 713 mmHg 21%
    15:00 +30°C° 0 mm 5 mps 713 mmHg 24%
    16:00 +29°C° 0 mm 4 mps 712 mmHg 27%
    17:00 +27°C° 0 mm 4 mps 712 mmHg 30%
    18:00 +25°C° 0 mm 4 mps 712 mmHg 36%
    19:00 +21°C° 0 mm 3 mps 712 mmHg 42%
    20:00 +19°C° 0 mm 2 mps 712 mmHg 47%
    21:00 +19°C° 0 mm 2 mps 712 mmHg 44%
    22:00 +18°C° 0 mm 2 mps 713 mmHg 40%
    23:00 +18°C° 0 mm 3 mps 713 mmHg 36%

    9 April, Thursday

    Time Temperature Precipitation Wind Pressure Humidity
    00:00 +18°C° 0 mm 2 mps 712 mmHg 36%
    01:00 +17°C° 0 mm 2 mps 712 mmHg 36%
    02:00 +16°C° 0 mm 2 mps 712 mmHg 36%
    03:00 +16°C° 0 mm 2 mps 712 mmHg 37%
    04:00 +15°C° 0 mm 1 mps 712 mmHg 38%
    05:00 +15°C° 0 mm 1 mps 712 mmHg 40%
    06:00 +17°C° 0 mm 2 mps 713 mmHg 35%
    07:00 +20°C° 0 mm 3 mps 714 mmHg 30%
    08:00 +22°C° 0 mm 3 mps 714 mmHg 26%
    09:00 +25°C° 0 mm 4 mps 714 mmHg 22%
    10:00 +27°C° 0 mm 4 mps 715 mmHg 18%
    11:00 +29°C° 0 mm 4 mps 715 mmHg 15%
    12:00 +29°C° 0 mm 5 mps 714 mmHg 17%
    13:00 +29°C° 0 mm 5 mps 714 mmHg 19%
    14:00 +29°C° 0 mm 6 mps 713 mmHg 21%
    15:00 +28°C° 0 mm 5 mps 713 mmHg 24%
    16:00 +27°C° 0 mm 5 mps 713 mmHg 26%
    17:00 +26°C° 0 mm 5 mps 712 mmHg 29%
    18:00 +22°C° 0 mm 4 mps 713 mmHg 37%
    19:00 +19°C° 0 mm 3 mps 713 mmHg 46%
    20:00 +18°C° 0 mm 1 mps 713 mmHg 54%
    21:00 +17°C° 0 mm 2 mps 713 mmHg 53%
    22:00 +16°C° 0 mm 2 mps 713 mmHg 52%
    23:00 +16°C° 0 mm 2 mps 713 mmHg 51%

    10 April, Friday

    Time Temperature Precipitation Wind Pressure Humidity
    00:00 +16°C° 0 mm 2 mps 713 mmHg 50%
    01:00 +15°C° 0 mm 2 mps 712 mmHg 49%
    02:00 +15°C° 0 mm 2 mps 712 mmHg 48%
    03:00 +15°C° 0 mm 2 mps 712 mmHg 49%
    04:00 +14°C° 0 mm 1 mps 712 mmHg 50%
    05:00 +14°C° 0 mm 1 mps 712 mmHg 51%
    06:00 +16°C° 0 mm 2 mps 713 mmHg 44%
    07:00 +19°C° 0 mm 2 mps 714 mmHg 38%
    08:00 +21°C° 0 mm 2 mps 715 mmHg 31%
    09:00 +24°C° 0 mm 3 mps 715 mmHg 27%
    10:00 +26°C° 0 mm 4 mps 715 mmHg 22%
    11:00 +27°C° 0 mm 5 mps 715 mmHg 18%
    12:00 +28°C° 0 mm 6 mps 714 mmHg 17%
    13:00 +28°C° 0 mm 6 mps 714 mmHg 16%
    14:00 +29°C° 0 mm 6 mps 713 mmHg 15%
    15:00 +28°C° 0 mm 6 mps 713 mmHg 18%
    16:00 +27°C° 0 mm 5 mps 713 mmHg 20%
    17:00 +26°C° 0 mm 5 mps 713 mmHg 23%
    18:00 +22°C° 0 mm 4 mps 713 mmHg 33%
    19:00 +20°C° 0 mm 3 mps 713 mmHg 44%
    20:00 +17°C° 0 mm 2 mps 713 mmHg 55%
    21:00 +16°C° 0 mm 2 mps 713 mmHg 55%
    22:00 +16°C° 0 mm 2 mps 713 mmHg 56%
    23:00 +15°C° 0 mm 2 mps 714 mmHg 56%

    11 April, Saturday

    Time Temperature Precipitation Wind Pressure Humidity
    00:00 +15°C° 0 mm 2 mps 714 mmHg 55%
    01:00 +15°C° 0 mm 2 mps 713 mmHg 54%
    02:00 +13°C° 0 mm 3 mps 713 mmHg 53%
    03:00 +13°C° 0 mm 3 mps 713 mmHg 49%
    04:00 +12°C° 0 mm 3 mps 714 mmHg 46%
    05:00 +12°C° 0 mm 3 mps 714 mmHg 42%
    06:00 +14°C° 0 mm 4 mps 714 mmHg 36%
    07:00 +16°C° 0 mm 5 mps 715 mmHg 31%
    08:00 +19°C° 0 mm 6 mps 716 mmHg 25%
    09:00 +20°C° 0 mm 6 mps 716 mmHg 21%
    10:00 +22°C° 0 mm 6 mps 716 mmHg 18%
    11:00 +23°C° 0 mm 6 mps 716 mmHg 14%
    12:00 +24°C° 0 mm 6 mps 715 mmHg 15%
    13:00 +26°C° 0 mm 6 mps 715 mmHg 15%
    14:00 +26°C° 0 mm 6 mps 714 mmHg 15%
    15:00 +24°C° 0 mm 6 mps 714 mmHg 18%
    16:00 +23°C° 0 mm 6 mps 714 mmHg 20%
    17:00 +23°C° 0 mm 6 mps 714 mmHg 22%
    18:00 +20°C° 0 mm 4 mps 714 mmHg 32%
    19:00 +18°C° 0 mm 3 mps 714 mmHg 41%
    20:00 +15°C° 0 mm 1 mps 714 mmHg 51%
    21:00 +15°C° 0 mm 1 mps 714 mmHg 54%
    22:00 +14°C° 0 mm 1 mps 715 mmHg 57%
    23:00 +14°C° 0 mm 1 mps 715 mmHg 60%
    Show more